ISR173 LLBG-LYTV

Flight info

Callsign ISR173
Flight time N/A
Altitude 38000
Route SUVAS L53 ANIDE DCT SOTIX UL53 AKORO DCT KUGGI DCT DIMIS DCT RODON DCT KOFER
Aircraft A320/M-SDE2FGHIJ1LORVWY/S

Departure

Time N/A
Airport Ben Gurion International Airport (LLBG)

Arrival

Time 2026-05-06 10:37
Airport Tivat Airport (LYTV)
Time Latitude Longitude Altitude Speed Heading
2026-05-06 10:02 39.67895 21.16680 36145 ft 432 kts 310°
2026-05-06 10:03 39.71889 21.10909 36133 ft 423 kts 310°
2026-05-06 10:03 39.75795 21.05282 36130 ft 422 kts 310°
2026-05-06 10:04 39.79718 20.99618 36143 ft 421 kts 310°
2026-05-06 10:04 39.83632 20.93947 36138 ft 421 kts 310°
2026-05-06 10:05 39.87544 20.88266 36140 ft 422 kts 310°
2026-05-06 10:05 39.91459 20.82571 36148 ft 422 kts 310°
2026-05-06 10:06 39.95370 20.76862 36135 ft 423 kts 310°
2026-05-06 10:06 39.99260 20.71182 36133 ft 423 kts 310°
2026-05-06 10:07 40.03175 20.65455 36130 ft 423 kts 310°
2026-05-06 10:07 40.07125 20.59760 36137 ft 424 kts 314°
2026-05-06 10:08 40.11678 20.54829 36141 ft 426 kts 319°
2026-05-06 10:08 40.16202 20.50086 36121 ft 407 kts 319°
2026-05-06 10:09 40.18371 20.47806 36118 ft 394 kts 319°
2026-05-06 10:09 40.20484 20.45580 36118 ft 388 kts 318°
2026-05-06 10:09 40.24670 20.41154 36116 ft 386 kts 318°
2026-05-06 10:10 40.28849 20.36730 36116 ft 386 kts 318°
2026-05-06 10:10 40.33023 20.32307 36116 ft 386 kts 318°
2026-05-06 10:11 40.37174 20.27920 36116 ft 386 kts 318°
2026-05-06 10:11 40.41345 20.23487 36129 ft 386 kts 318°
2026-05-06 10:12 40.45507 20.19042 36127 ft 386 kts 318°
2026-05-06 10:12 40.49667 20.14593 36127 ft 386 kts 318°
2026-05-06 10:13 40.53809 20.10177 36110 ft 386 kts 318°
2026-05-06 10:13 40.57993 20.05719 36103 ft 388 kts 318°
2026-05-06 10:14 40.62176 20.01230 36105 ft 388 kts 318°
2026-05-06 10:14 40.66367 19.96736 36115 ft 389 kts 318°
2026-05-06 10:15 40.70536 19.92256 36120 ft 390 kts 318°
2026-05-06 10:15 40.74730 19.87733 36121 ft 389 kts 318°
2026-05-06 10:16 40.78923 19.83205 36121 ft 390 kts 318°
2026-05-06 10:16 40.83121 19.78673 36124 ft 390 kts 318°
2026-05-06 10:17 40.87294 19.74159 36113 ft 391 kts 318°
2026-05-06 10:17 40.89403 19.71872 35939 ft 394 kts 318°
2026-05-06 10:17 40.91526 19.69570 35543 ft 393 kts 318°
2026-05-06 10:18 40.93636 19.67282 35297 ft 392 kts 317°
2026-05-06 10:18 40.95746 19.64989 35055 ft 393 kts 317°
2026-05-06 10:18 40.97857 19.62694 34806 ft 393 kts 317°
2026-05-06 10:18 40.99970 19.60396 34564 ft 393 kts 317°
2026-05-06 10:19 41.02087 19.58096 34324 ft 394 kts 317°
2026-05-06 10:19 41.04177 19.55823 34084 ft 394 kts 317°
2026-05-06 10:19 41.06297 19.53513 33816 ft 395 kts 317°
2026-05-06 10:19 41.08418 19.51197 33544 ft 395 kts 317°
2026-05-06 10:20 41.10539 19.48872 33275 ft 396 kts 317°
2026-05-06 10:20 41.12664 19.46541 33008 ft 397 kts 317°
2026-05-06 10:20 41.14796 19.44206 32680 ft 398 kts 317°
2026-05-06 10:20 41.16936 19.41860 32262 ft 399 kts 317°
2026-05-06 10:21 41.19079 19.39512 31853 ft 401 kts 317°
2026-05-06 10:21 41.21202 19.37185 31456 ft 402 kts 317°
2026-05-06 10:21 41.23369 19.34808 31059 ft 410 kts 317°
2026-05-06 10:21 41.25627 19.32324 30651 ft 432 kts 317°
2026-05-06 10:22 41.27984 19.29716 30165 ft 449 kts 317°
2026-05-06 10:22 41.30407 19.27037 29521 ft 456 kts 318°
2026-05-06 10:22 41.32858 19.24335 28861 ft 459 kts 318°
2026-05-06 10:22 41.35326 19.21615 28217 ft 461 kts 318°
2026-05-06 10:23 41.37801 19.18883 27582 ft 463 kts 318°
2026-05-06 10:23 41.40286 19.16140 26981 ft 465 kts 318°
2026-05-06 10:23 41.42743 19.13425 26391 ft 466 kts 318°
2026-05-06 10:23 41.45237 19.10664 25721 ft 468 kts 318°
2026-05-06 10:24 41.47882 19.08105 24925 ft 472 kts 323°
2026-05-06 10:24 41.50588 19.05612 24160 ft 471 kts 323°
2026-05-06 10:24 41.53255 19.03155 23352 ft 460 kts 323°
2026-05-06 10:24 41.55826 19.00786 22463 ft 439 kts 323°
2026-05-06 10:25 41.58309 18.98495 21619 ft 430 kts 323°
2026-05-06 10:25 41.60748 18.96236 20785 ft 424 kts 322°
2026-05-06 10:25 41.63147 18.94005 19979 ft 414 kts 322°
2026-05-06 10:25 41.65467 18.91854 19203 ft 401 kts 323°
2026-05-06 10:26 41.67946 18.90205 18440 ft 399 kts 341°
2026-05-06 10:26 41.70688 18.89655 17575 ft 400 kts 354°
2026-05-06 10:26 41.73438 18.89508 16721 ft 390 kts 355°
2026-05-06 10:26 41.76112 18.89379 15877 ft 379 kts 355°
2026-05-06 10:27 41.78705 18.89247 15090 ft 369 kts 355°
2026-05-06 10:27 41.81241 18.89114 14310 ft 361 kts 355°
2026-05-06 10:27 41.83708 18.88984 13478 ft 354 kts 355°
2026-05-06 10:27 41.86115 18.88846 12666 ft 347 kts 355°
2026-05-06 10:28 41.88535 18.88725 11904 ft 341 kts
2026-05-06 10:28 41.90840 18.88962 11333 ft 330 kts
2026-05-06 10:28 41.93068 18.89123 11022 ft 312 kts 356°
2026-05-06 10:28 41.95194 18.89109 10640 ft 300 kts 360°
2026-05-06 10:29 41.97245 18.89181 10261 ft 290 kts 359°
2026-05-06 10:29 41.99233 18.89191 9868 ft 281 kts 356°
2026-05-06 10:29 42.01163 18.89104 9450 ft 274 kts 356°
2026-05-06 10:29 42.03043 18.88980 9041 ft 268 kts 355°
2026-05-06 10:30 42.04267 18.88894 8765 ft 265 kts 355°
2026-05-06 10:30 42.06706 18.88725 7961 ft 268 kts 356°
2026-05-06 10:30 42.08594 18.88602 7254 ft 275 kts 357°
2026-05-06 10:30 42.10523 18.88489 6563 ft 280 kts 357°
2026-05-06 10:31 42.12444 18.88069 5823 ft 282 kts 341°
2026-05-06 10:31 42.14265 18.87122 5252 ft 279 kts 336°
2026-05-06 10:31 42.15453 18.86471 4879 ft 278 kts 338°
2026-05-06 10:31 42.17838 18.85239 4186 ft 274 kts 339°
2026-05-06 10:32 42.19610 18.84343 3720 ft 269 kts 339°
2026-05-06 10:32 42.21346 18.83461 3247 ft 264 kts 339°
2026-05-06 10:32 42.23040 18.82598 2839 ft 256 kts 339°
2026-05-06 10:32 42.24672 18.81766 2617 ft 243 kts 339°
2026-05-06 10:33 42.26194 18.80991 2324 ft 230 kts 339°
2026-05-06 10:33 42.27178 18.80513 2034 ft 222 kts 341°
2026-05-06 10:33 42.28588 18.79891 1762 ft 208 kts 343°
2026-05-06 10:33 42.29896 18.79356 1698 ft 184 kts 343°
2026-05-06 10:34 42.31046 18.78833 1582 ft 166 kts 341°
2026-05-06 10:34 42.32409 18.78119 1355 ft 148 kts 340°
2026-05-06 10:34 42.33358 18.77700 1195 ft 148 kts 346°
2026-05-06 10:34 42.34059 18.77432 1075 ft 161 kts 346°
2026-05-06 10:35 42.35114 18.77000 943 ft 158 kts 343°
2026-05-06 10:35 42.36095 18.76581 813 ft 142 kts 343°
2026-05-06 10:35 42.37011 18.76142 641 ft 139 kts 336°
2026-05-06 10:35 42.37840 18.75422 503 ft 148 kts 321°
2026-05-06 10:36 42.38616 18.74509 300 ft 144 kts 319°
2026-05-06 10:36 42.39395 18.73593 117 ft 153 kts 319°
2026-05-06 10:36 42.40164 18.72682 17 ft 134 kts 318°
2026-05-06 10:36 42.40777 18.71962 8 ft 96 kts 319°
2026-05-06 10:37 42.41097 18.71587 10 ft 27 kts 320°
2026-05-06 10:37 42.41197 18.71469 9 ft 18 kts 318°
2026-05-06 10:37 42.41280 18.71374 8 ft 12 kts 332°
2026-05-06 10:37 42.41354 18.71401 9 ft 13 kts 57°
2026-05-06 10:38 42.41337 18.71486 9 ft 8 kts 137°
2026-05-06 10:38 42.41287 18.71545 9 ft 11 kts 139°
2026-05-06 10:38 42.41228 18.71613 10 ft 12 kts 139°
2026-05-06 10:38 42.41210 18.71634 10 ft 4 kts 137°
2026-05-06 10:39 42.41222 18.71672 10 ft 4 kts 60°
2026-05-06 10:39 42.41218 18.71691 10 ft 1 kts 135°
2026-05-06 10:39 42.41211 18.71695 9 ft 0 kts 150°
2026-05-06 10:52 42.41212 18.71695 10 ft 0 kts 154°
2026-05-06 10:57 42.41212 18.71694 11 ft 0 kts 154°
2026-05-06 11:08 42.41213 18.71694 9 ft 0 kts 154°
2026-05-06 11:21 42.41213 18.71693 14 ft 0 kts 154°
2026-05-06 11:24 42.41214 18.71693 14 ft 0 kts 154°